• In Hungary
  • List of Countries
  • For 7 days
  • Water Temperature
  • Satellite Maps
  • Weather Map
  • News
  • Weather Widgets
  • user-avatar
    Login

    Hourly Weather Wolinia

    Today, 15 July, Sunday

    Time Temperature Precipitation Wind Pressure Humidity
    00:00 +15°C° 0 mm 4 mps 757 mmHg 93%
    01:00 +15°C° 0 mm 4 mps 757 mmHg 94%
    02:00 +15°C° 0 mm 4 mps 757 mmHg 94%
    03:00 +15°C° 0 mm 4 mps 757 mmHg 94%
    04:00 +15°C° 0 mm 4 mps 757 mmHg 94%
    05:00 +17°C° 0 mm 4 mps 757 mmHg 89%
    06:00 +19°C° 0 mm 5 mps 757 mmHg 83%
    07:00 +20°C° 0 mm 5 mps 757 mmHg 76%
    08:00 +21°C° 0 mm 5 mps 757 mmHg 72%
    09:00 +22°C° 0 mm 5 mps 758 mmHg 68%
    10:00 +23°C° 0 mm 5 mps 758 mmHg 64%
    11:00 +25°C° 0 mm 5 mps 758 mmHg 63%
    12:00 +25°C° 0 mm 5 mps 758 mmHg 61%
    13:00 +25°C° 0 mm 5 mps 758 mmHg 61%
    14:00 +25°C° 0 mm 5 mps 758 mmHg 62%
    15:00 +25°C° 0 mm 4 mps 758 mmHg 63%
    16:00 +23°C° 0 mm 4 mps 757 mmHg 64%
    17:00 +22°C° 0 mm 4 mps 757 mmHg 69%
    18:00 +21°C° 0 mm 3 mps 757 mmHg 73%
    19:00 +20°C° 0 mm 3 mps 757 mmHg 78%
    20:00 +19°C° 0 mm 3 mps 757 mmHg 83%
    21:00 +18°C° 0 mm 2 mps 757 mmHg 87%
    22:00 +17°C° 0 mm 2 mps 758 mmHg 92%
    23:00 +16°C° 0 mm 2 mps 757 mmHg 92%

    Tomorrow, 16 July, Monday

    Time Temperature Precipitation Wind Pressure Humidity
    00:00 +16°C° 0 mm 2 mps 757 mmHg 92%
    01:00 +16°C° 0 mm 2 mps 757 mmHg 92%
    02:00 +16°C° 0 mm 2 mps 757 mmHg 92%
    03:00 +16°C° 0 mm 2 mps 757 mmHg 91%
    04:00 +16°C° 0 mm 2 mps 757 mmHg 91%
    05:00 +18°C° 0 mm 2 mps 757 mmHg 85%
    06:00 +19°C° 0 mm 3 mps 757 mmHg 79%
    07:00 +21°C° 0 mm 3 mps 757 mmHg 73%
    08:00 +22°C° 0 mm 3 mps 757 mmHg 68%
    09:00 +25°C° 0 mm 3 mps 756 mmHg 64%
    10:00 +26°C° 0 mm 4 mps 756 mmHg 59%
    11:00 +26°C° 0.2 mm 4 mps 756 mmHg 60%
    12:00 +27°C° 0.2 mm 4 mps 756 mmHg 60%
    13:00 +27°C° 0.2 mm 5 mps 756 mmHg 60%
    14:00 +26°C° 0.2 mm 5 mps 756 mmHg 63%
    15:00 +26°C° 0.2 mm 5 mps 755 mmHg 66%
    16:00 +25°C° 0.2 mm 5 mps 755 mmHg 69%
    17:00 +23°C° 0 mm 4 mps 755 mmHg 72%
    18:00 +22°C° 0 mm 4 mps 755 mmHg 74%
    19:00 +21°C° 0 mm 4 mps 755 mmHg 77%
    20:00 +20°C° 0 mm 4 mps 755 mmHg 81%
    21:00 +20°C° 0 mm 4 mps 755 mmHg 85%
    22:00 +19°C° 0 mm 4 mps 755 mmHg 88%
    23:00 +19°C° 0.2 mm 4 mps 754 mmHg 90%

    Day after tomorrow, 17 July, Tuesday

    Time Temperature Precipitation Wind Pressure Humidity
    00:00 +19°C° 0.2 mm 3 mps 754 mmHg 92%
    01:00 +19°C° 0.2 mm 3 mps 754 mmHg 94%
    02:00 +19°C° 0.8 mm 3 mps 754 mmHg 95%
    03:00 +19°C° 0.8 mm 4 mps 753 mmHg 96%
    04:00 +19°C° 0.8 mm 4 mps 753 mmHg 96%
    05:00 +19°C° 1.1 mm 4 mps 753 mmHg 96%
    06:00 +19°C° 1.1 mm 4 mps 753 mmHg 96%
    07:00 +19°C° 1.1 mm 5 mps 752 mmHg 95%
    08:00 +20°C° 0.3 mm 5 mps 752 mmHg 93%
    09:00 +21°C° 0.3 mm 5 mps 752 mmHg 90%
    10:00 +22°C° 0.3 mm 5 mps 753 mmHg 88%
    11:00 +23°C° 0.2 mm 5 mps 752 mmHg 83%
    12:00 +25°C° 0.2 mm 5 mps 752 mmHg 78%
    13:00 +26°C° 0.2 mm 5 mps 752 mmHg 74%
    14:00 +25°C° 0.4 mm 5 mps 752 mmHg 77%
    15:00 +25°C° 0.4 mm 5 mps 752 mmHg 80%
    16:00 +23°C° 0.4 mm 5 mps 752 mmHg 83%
    17:00 +22°C° 0.8 mm 5 mps 752 mmHg 87%
    18:00 +21°C° 0.8 mm 4 mps 752 mmHg 91%
    19:00 +20°C° 0.8 mm 4 mps 752 mmHg 94%
    20:00 +20°C° 0.6 mm 4 mps 752 mmHg 94%
    21:00 +20°C° 0.6 mm 3 mps 752 mmHg 94%
    22:00 +19°C° 0.6 mm 3 mps 752 mmHg 94%
    23:00 +19°C° 0.2 mm 3 mps 752 mmHg 94%

    18 July, Wednesday

    Time Temperature Precipitation Wind Pressure Humidity
    00:00 +19°C° 0.2 mm 3 mps 752 mmHg 94%
    01:00 +19°C° 0.2 mm 2 mps 752 mmHg 94%
    02:00 +19°C° 0.1 mm 2 mps 752 mmHg 94%
    03:00 +19°C° 0.1 mm 2 mps 752 mmHg 93%
    04:00 +20°C° 0.1 mm 2 mps 752 mmHg 93%
    05:00 +20°C° 0.2 mm 2 mps 752 mmHg 92%
    06:00 +21°C° 0.2 mm 2 mps 752 mmHg 91%
    07:00 +23°C° 0.2 mm 2 mps 752 mmHg 90%
    08:00 +24°C° 0.6 mm 2 mps 752 mmHg 86%
    09:00 +25°C° 0.6 mm 2 mps 752 mmHg 83%
    10:00 +26°C° 0.6 mm 2 mps 752 mmHg 79%
    11:00 +26°C° 0.8 mm 3 mps 753 mmHg 78%
    12:00 +27°C° 0.8 mm 3 mps 753 mmHg 77%
    13:00 +27°C° 0.8 mm 3 mps 753 mmHg 76%
    14:00 +26°C° 0.4 mm 3 mps 753 mmHg 76%
    15:00 +26°C° 0.4 mm 3 mps 753 mmHg 77%
    16:00 +26°C° 0.4 mm 3 mps 754 mmHg 77%
    17:00 +23°C° 0.2 mm 4 mps 754 mmHg 81%
    18:00 +22°C° 0.2 mm 4 mps 754 mmHg 85%
    19:00 +21°C° 0.2 mm 4 mps 754 mmHg 89%
    20:00 +20°C° 0.1 mm 4 mps 754 mmHg 91%
    21:00 +20°C° 0.1 mm 4 mps 754 mmHg 92%
    22:00 +19°C° 0.1 mm 4 mps 754 mmHg 94%
    23:00 +19°C° 0 mm 4 mps 754 mmHg 94%

    19 July, Thursday

    Time Temperature Precipitation Wind Pressure Humidity
    00:00 +19°C° 0 mm 4 mps 754 mmHg 95%
    01:00 +19°C° 0 mm 4 mps 754 mmHg 95%
    02:00 +19°C° 0 mm 3 mps 754 mmHg 96%
    03:00 +19°C° 0 mm 3 mps 754 mmHg 96%
    04:00 +19°C° 0 mm 3 mps 755 mmHg 96%
    05:00 +19°C° 0 mm 3 mps 755 mmHg 94%
    06:00 +20°C° 0 mm 3 mps 755 mmHg 91%
    07:00 +21°C° 0 mm 3 mps 755 mmHg 89%
    08:00 +22°C° 0 mm 3 mps 755 mmHg 83%
    09:00 +23°C° 0 mm 4 mps 755 mmHg 78%
    10:00 +25°C° 0 mm 4 mps 756 mmHg 73%
    11:00 +26°C° 0.1 mm 4 mps 756 mmHg 70%
    12:00 +26°C° 0.1 mm 4 mps 756 mmHg 67%
    13:00 +27°C° 0.1 mm 4 mps 756 mmHg 65%
    14:00 +27°C° 0 mm 4 mps 756 mmHg 65%
    15:00 +26°C° 0 mm 4 mps 756 mmHg 66%
    16:00 +26°C° 0 mm 4 mps 756 mmHg 67%
    17:00 +25°C° 0 mm 4 mps 756 mmHg 72%
    18:00 +23°C° 0 mm 4 mps 756 mmHg 77%
    19:00 +21°C° 0 mm 4 mps 756 mmHg 81%
    20:00 +20°C° 0 mm 3 mps 756 mmHg 85%
    21:00 +20°C° 0 mm 3 mps 756 mmHg 89%
    22:00 +19°C° 0 mm 3 mps 756 mmHg 93%
    23:00 +18°C° 0 mm 3 mps 756 mmHg 93%

    20 July, Friday

    Time Temperature Precipitation Wind Pressure Humidity
    00:00 +18°C° 0 mm 3 mps 756 mmHg 93%
    01:00 +18°C° 0 mm 3 mps 756 mmHg 93%
    02:00 +18°C° 0 mm 3 mps 756 mmHg 94%
    03:00 +18°C° 0 mm 3 mps 755 mmHg 94%
    04:00 +18°C° 0 mm 3 mps 755 mmHg 94%
    05:00 +19°C° 0 mm 3 mps 755 mmHg 89%
    06:00 +21°C° 0 mm 4 mps 755 mmHg 83%
    07:00 +22°C° 0 mm 4 mps 755 mmHg 78%
    08:00 +23°C° 0 mm 4 mps 756 mmHg 73%
    09:00 +25°C° 0 mm 4 mps 756 mmHg 69%
    10:00 +26°C° 0 mm 4 mps 756 mmHg 64%
    11:00 +26°C° 0 mm 4 mps 756 mmHg 62%
    12:00 +27°C° 0 mm 4 mps 756 mmHg 60%
    13:00 +27°C° 0 mm 4 mps 756 mmHg 59%
    14:00 +27°C° 0 mm 4 mps 756 mmHg 59%
    15:00 +26°C° 0 mm 5 mps 756 mmHg 59%
    16:00 +25°C° 0 mm 5 mps 756 mmHg 60%
    17:00 +23°C° 0 mm 4 mps 756 mmHg 63%
    18:00 +22°C° 0 mm 3 mps 756 mmHg 67%
    19:00 +21°C° 0 mm 3 mps 756 mmHg 70%
    20:00 +20°C° 0 mm 3 mps 756 mmHg 74%
    21:00 +18°C° 0 mm 3 mps 756 mmHg 77%
    22:00 +17°C° 0 mm 3 mps 756 mmHg 80%
    23:00 +17°C° 0 mm 3 mps 756 mmHg 80%
    Show more